Home   Weather   Emmen   Past weeks

Flag for Switzerland Past Weather in Emmen, Lucerne, Switzerland — Yesterday and Last 2 Weeks

Now
47 °F

Cool.


Feels Like: 47 °F
Forecast: 35 / 67 °F
Wind: 1 mph from East

Location: Giswil

Current Time: Apr 23, 2017 at 12:23:38 pm

Latest Report: Apr 23, 2017 at 11:00 am


Visibility: N/A

Pressure: 30.25 "Hg

Humidity: 57%

Dew Point: 33 °F

Location of EmmenLocation

Past Weather in Emmen — Graph

°F

Emmen Temperature Yesterday

Maximum temperature yesterday: 63 °F (at 4:00 pm)
Minimum temperature yesterday: 29 °F (at 6:00 am)
Average temperature yesterday: 47 °F

High & Low Weather Summary for the Past Weeks

 TemperatureHumidityPressure
High74 °F (Apr 10, 4:00 pm)100% (Apr 9, 6:00 am)30.59 "Hg (Apr 9, 6:00 am)
Low23 °F (Apr 21, 6:00 am)25% (Apr 21, 5:00 pm)29.89 "Hg (Apr 13, 5:00 pm)
Average47 °F76%30.22 "Hg
* Reported Apr 8 11:00 am — Apr 23 11:00 am, Emmen, Weather by CustomWeather, © 2017

Note: Actual official high and low records may vary slightly from our data, if they occured in-between our weather recording intervals... More about our weather records

Advertising

Emmen Weather History for the Previous 24 Hours

Scroll right to see more
 ConditionsComfort  
Time TempWeatherWind HumidityBarometerVisibility
11:00 am
Sun, Apr 23
47 °FCool.1 mph57%30.25 "HgN/A
10:00 am47 °FCool.2 mph60%30.25 "HgN/A
9:00 am46 °FCool.2 mph74%30.25 "HgN/A
8:00 am45 °FCool.1 mph78%30.25 "HgN/A
7:00 am46 °FCool.5 mph75%30.23 "HgN/A
6:00 am47 °FCool.6 mph81%30.21 "HgN/A
5:00 am48 °FCool.6 mph80%30.20 "HgN/A
4:00 am51 °FCool.3 mph65%30.19 "HgN/A
3:00 am48 °FCool.1 mph78%30.20 "HgN/A
2:00 am51 °FCool.1 mph64%30.21 "HgN/A
1:00 am52 °FCool.2 mph59%30.21 "HgN/A
12:00 am52 °FCool.5 mph58%30.21 "HgN/A
11:00 pm
Sat, Apr 22
53 °FCool.5 mph60%30.21 "HgN/A
10:00 pm54 °FCool.6 mph59%30.20 "HgN/A
9:00 pm55 °FCool.5 mph53%30.17 "HgN/A
8:00 pm56 °FRefreshingly cool.6 mph52%30.16 "HgN/A
7:00 pm57 °FRefreshingly cool.8 mph54%30.14 "HgN/A
6:00 pm58 °FRefreshingly cool.8 mph51%30.13 "HgN/A
5:00 pm63 °FMild.5 mph37%30.10 "HgN/A
4:00 pm63 °FMild.3 mph37%30.13 "HgN/A
3:00 pm62 °FMild.3 mph38%30.16 "HgN/A
2:00 pm60 °FRefreshingly cool.3 mph35%30.19 "HgN/A
1:00 pm58 °FRefreshingly cool.3 mph36%30.22 "HgN/A
12:00 pm55 °FRefreshingly cool.2 mph40%30.25 "HgN/A
Weather by CustomWeather, © 2017

See weather overviewHow to use our weather pages